Baltimore, MD

1:32 AM EST on February 08, 2016 (GMT -0500)
Martin State

Weather History for KMTN - January, 2013

Change the Weather History Date:

Thursday, January 3, 2013

  Actual Average Record
Temperature  
Mean Temperature 32 °F -  
Max Temperature 39 °F 41 °F 64 °F (1997)
Min Temperature 24 °F 28 °F 12 °F (2014)
Degree Days  
Heating Degree Days 34    
Moisture  
Dew Point 19 °F    
Average Humidity 62    
Maximum Humidity 74    
Minimum Humidity 39    
Precipitation  
Precipitation 0.00 in - - ()
Sea Level Pressure  
Sea Level Pressure 30.23 in    
Wind  
Wind Speed 3 mph (WSW)    
Max Wind Speed 10 mph    
Max Gust Speed -    
Visibility 10 miles    
Events      
Averages and records for this station are not official NWS values.
T = Trace of Precipitation, MM = Missing Value Source: NWS Daily Summary

Daily Weather History Graph

Daily Weather History Graph

Search for Another Location

Airport or City:

Trip Planner

Search our weather history database for the weather conditions in past years. The results will help you decide how hot, cold, wet, or windy it might be!

Date:

Astronomy

Jan. 03, 2013 Rise Set
Actual Time 7:25 AM EST 4:55 PM EST
Civil Twilight 6:55 AM EST 5:25 PM EST
Nautical Twilight 6:22 AM EST 5:58 PM EST
Astronomical Twilight 5:49 AM EST 6:31 PM EST
Moon 11:25 PM EST (1/3) 10:38 AM EST (1/3)
Length of Visible Light 10h 29m
Length of Day
9h 29m
Waning Gibbous, 65% of the Moon is Illuminated
Jan 3
Waning Gibbous
Jan 4
Last Quarter
Jan 11
New
Jan 18
First Quarter
Jan 26
Full

Hourly Weather History & Observations

Time (EST) Temp. Windchill Dew Point Humidity Pressure Visibility Wind Dir Wind Speed Gust Speed Precip Events Conditions
12:03 AM 28.4 °F 24.6 °F 17.6 °F 64% 30.25 in 10.0 mi WNW 3.5 mph - N/A   Clear
12:24 AM 28.4 °F 24.6 °F 17.6 °F 64% 30.25 in 10.0 mi NW 3.5 mph - N/A   Clear
1:09 AM 28.4 °F - 19.4 °F 69% 30.25 in 10.0 mi Calm Calm - N/A   Clear
1:30 AM 28.4 °F 24.6 °F 19.4 °F 69% 30.24 in 10.0 mi WNW 3.5 mph - N/A   Clear
1:51 AM 28.4 °F 23.3 °F 17.6 °F 64% 30.24 in 10.0 mi WNW 4.6 mph - N/A   Clear
2:54 AM 28.4 °F - 17.6 °F 64% 30.26 in 10.0 mi Calm Calm - N/A   Clear
3:15 AM 28.4 °F - 17.6 °F 64% 30.25 in 10.0 mi Calm Calm - N/A   Clear
3:57 AM 28.4 °F - 17.6 °F 64% 30.25 in 10.0 mi Calm Calm - N/A   Clear
4:21 AM 28.4 °F - 19.4 °F 69% 30.24 in 10.0 mi Calm Calm - N/A   Clear
4:42 AM 28.4 °F 24.6 °F 15.8 °F 59% 30.24 in 10.0 mi WNW 3.5 mph - N/A   Clear
5:03 AM 28.4 °F - 17.6 °F 64% 30.24 in 10.0 mi Calm Calm - N/A   Clear
5:24 AM 28.4 °F 24.6 °F 19.4 °F 69% 30.24 in 10.0 mi WNW 3.5 mph - N/A   Clear
5:30 AM 28.4 °F - 19.4 °F 69% 30.24 in 10.0 mi Calm Calm - N/A   Clear
5:50 AM 26.6 °F - 17.6 °F 69% 30.24 in 10.0 mi Calm Calm - N/A   Clear
6:55 AM 24.8 °F 20.5 °F 15.8 °F 69% 30.26 in 10.0 mi NW 3.5 mph - N/A   Scattered Clouds
7:50 AM 24.8 °F - 17.6 °F 74% 30.28 in 7.0 mi Calm Calm - N/A   Scattered Clouds
8:45 AM 26.6 °F - 17.6 °F 69% 30.27 in 7.0 mi Calm Calm - N/A   Scattered Clouds
9:45 AM 28.4 °F - 17.6 °F 64% 30.28 in 7.0 mi Calm Calm - N/A   Scattered Clouds
10:45 AM 30.2 °F - 17.6 °F 60% 30.26 in 7.0 mi Calm Calm - N/A   Scattered Clouds
11:55 AM 35.6 °F 32.8 °F 17.6 °F 48% 30.23 in 7.0 mi South 3.5 mph - N/A   Mostly Cloudy
12:45 PM 35.6 °F 30.7 °F 17.6 °F 48% 30.19 in 8.0 mi South 5.8 mph - N/A   Mostly Cloudy
1:50 PM 37.4 °F 30.8 °F 15.8 °F 41% 30.17 in 10.0 mi WSW 9.2 mph - N/A   Scattered Clouds
2:45 PM 39.2 °F 32.5 °F 15.8 °F 39% 30.17 in 10.0 mi WSW 10.4 mph - N/A   Scattered Clouds
3:50 PM 39.2 °F 33.6 °F 17.6 °F 42% 30.16 in 10.0 mi WSW 8.1 mph - N/A   Scattered Clouds
4:45 PM 37.4 °F 32.8 °F 17.6 °F 45% 30.18 in 10.0 mi WSW 5.8 mph - N/A   Scattered Clouds
6:50 PM 35.6 °F - 17.6 °F 48% 30.19 in 10.0 mi Calm Calm - N/A   Scattered Clouds
7:45 PM 33.8 °F - 21.2 °F 60% 30.19 in 10.0 mi Calm Calm - N/A   Scattered Clouds
9:45 PM 32.0 °F 27.5 °F 21.2 °F 64% 30.19 in 10.0 mi WSW 4.6 mph - N/A   Scattered Clouds
10:03 PM 32.0 °F 27.5 °F 23.0 °F 69% 30.19 in 10.0 mi SW 4.6 mph - N/A   Clear
10:24 PM 32.0 °F 26.4 °F 23.0 °F 69% 30.19 in 10.0 mi SW 5.8 mph - N/A   Clear
11:27 PM 32.0 °F - 23.0 °F 69% 30.19 in 10.0 mi Calm Calm - N/A   Clear
11:48 PM 32.0 °F 27.5 °F 23.0 °F 69% 30.19 in 10.0 mi SW 4.6 mph - N/A   Clear